Weather History for Vernal, UT

Change the Weather History Date:

Friday, October 5, 2012

  Actual Average Record
Temperature  
Mean Temperature 51 °F 52 °F  
Max Temperature 65 °F 66 °F 83 °F (1935)
Min Temperature 36 °F 39 °F 19 °F (1953)
Degree Days  
Heating Degree Days 14 13  
Month to date heating degree days 45 59  
Since 1 July heating degree days 115 241  
Cooling Degree Days 0 0  
Month to date cooling degree days 0 0  
Year to date cooling degree days 810 511  
Moisture  
Dew Point 16 °F    
Average Humidity 37    
Maximum Humidity 62    
Minimum Humidity 11    
Precipitation  
Precipitation 0.00 in 0.05 in 0.75 in (1962)
Month to date precipitation 0.00 0.24  
Year to date precipitation 2.95 6.93  
Sea Level Pressure  
Sea Level Pressure 30.00 in    
Wind  
Wind Speed 6 mph (SSE)    
Max Wind Speed 18 mph    
Max Gust Speed 24 mph    
Visibility 10 miles    
Events      
T = Trace of Precipitation, MM = Missing Value Source: NWS Daily Summary

Daily Weather History Graph

Daily Weather History Graph

Search for Another Location

Airport:

Trip Planner

Search our weather history database for the weather conditions in past years. The results will help you decide how hot, cold, wet, or windy it might be!

Date:

Astronomy

Oct. 05, 2012 Rise Set
Actual Time 7:19 AM MDT 6:52 PM MDT
Civil Twilight 6:51 AM MDT 7:19 PM MDT
Nautical Twilight 6:20 AM MDT 7:51 PM MDT
Astronomical Twilight 5:48 AM MDT 8:23 PM MDT
Moon 10:18 PM MDT (10/5) 12:30 PM MDT (10/5)
Length of Visible Light 12h 28m
Length of Day
11h 33m
Waning Gibbous, 73% of the Moon is Illuminated
Oct 5
Waning Gibbous
Oct 8
Last Quarter
Oct 15
New
Oct 21
First Quarter
Oct 29
Full

Hourly Weather History & Observations

Time (MDT) Temp. Windchill Dew Point Humidity Pressure Visibility Wind Dir Wind Speed Gust Speed Precip Events Conditions
12:53 AM 45.0 °F 43.5 °F 32.0 °F 60% 29.93 in 10.0 mi WSW 3.5 mph - N/A   Mostly Cloudy
2:53 AM 43.0 °F 40.3 °F 24.1 °F 47% 29.94 in 10.0 mi West 4.6 mph - N/A   Clear
3:53 AM 44.1 °F 40.1 °F 21.9 °F 42% 29.94 in 10.0 mi West 6.9 mph - N/A   Clear
4:53 AM 42.1 °F 38.4 °F 25.0 °F 51% 29.97 in 10.0 mi WSW 5.8 mph - N/A   Clear
5:53 AM 41.0 °F 37.1 °F 23.0 °F 49% 29.99 in 9.0 mi WNW 5.8 mph - N/A   Clear
6:53 AM 37.0 °F 34.5 °F 23.0 °F 57% 30.04 in 10.0 mi South 3.5 mph - N/A   Clear
7:53 AM 39.9 °F 35.8 °F 19.0 °F 43% 30.08 in 10.0 mi South 5.8 mph - N/A   Clear
8:53 AM 50.0 °F - 17.1 °F 27% 30.06 in 10.0 mi SE 5.8 mph - N/A   Clear
9:53 AM 52.0 °F - 19.0 °F 27% 30.07 in 10.0 mi SSE 8.1 mph - N/A   Clear
10:53 AM 57.0 °F - 17.1 °F 21% 30.06 in 10.0 mi SSE 10.4 mph - N/A   Clear
11:53 AM 57.9 °F - 14.0 °F 18% 30.06 in 10.0 mi SE 9.2 mph - N/A   Clear
12:53 PM 59.0 °F - 12.0 °F 16% 30.06 in 10.0 mi South 3.5 mph - N/A   Clear
1:53 PM 62.1 °F - 12.9 °F 15% 30.01 in 10.0 mi Variable 4.6 mph - N/A   Clear
2:53 PM 62.1 °F - 12.0 °F 14% 29.99 in 10.0 mi SE 8.1 mph - N/A   Clear
3:53 PM 64.0 °F - 12.0 °F 13% 29.96 in 10.0 mi NNE 6.9 mph - N/A   Clear
4:53 PM 64.0 °F - 9.0 °F 12% 29.95 in 10.0 mi Calm Calm - N/A   Clear
5:53 PM 63.0 °F - 9.0 °F 12% 29.95 in 10.0 mi ENE 3.5 mph - N/A   Clear
6:53 PM 59.0 °F - 14.0 °F 17% 29.98 in 10.0 mi East 3.5 mph - N/A   Clear
7:53 PM 57.0 °F - 10.0 °F 15% 29.98 in 10.0 mi East 5.8 mph - N/A   Clear
8:53 PM 54.0 °F - 10.0 °F 17% 29.97 in 10.0 mi ENE 4.6 mph - N/A   Clear
9:53 PM 48.0 °F - 10.0 °F 22% 29.99 in 10.0 mi Calm Calm - N/A   Clear
10:53 PM 51.1 °F - 8.1 °F 18% 29.98 in 10.0 mi North 11.5 mph - N/A   Clear
11:53 PM 50.0 °F - 7.0 °F 18% 29.99 in 10.0 mi NNW 9.2 mph - N/A   Clear